Find Starlink 31844

NORAD ID: 60583 Int'l Des: 2024-150 Owner: SPXS Country: US Constellation: starlink operational
LEOCIRCULAR

現在のビュー

3D地球を読み込み中...

About Starlink 31844

Starlink 31844 (NORAD 60583) is a starlink constellation satellite (v2 mini) launched Aug 20, 2024 by SPXS of US. It operates in LEO, CIRCULAR orbit with a mass of 730.00 kg.

次回通過

Passes for default location (London). Set your location on the main map for personalized predictions.

高度履歴

Loading altitude history...

軌道要素

1 60583U 24150A 26264.93008253 .00000789 00000-0 37197-4 0 9999
2 60583 53.1590 113.6003 0001224 90.0185 270.0957 15.31706457118114
Epoch: Sep 21, 2026 • Age: 23 hours

現在のステータス

高度 472.6 km
遠地点 / 近地点 N/A
速度 7.63 km/s
衛星直下点 -5.42°S, 136.49°E
打ち上げ日 Aug 20, 2024
運用期間 2 years
タイプ internet

技術仕様

分類 Payload
質量 730.00 kg
乾燥質量 700.00 kg
長さ 0.30 m
スパン 29.00 m
形状 ? Box + pan
製造者 SPXS
バスタイプ Starlink V2M
フェーズステータス In Orbit
所有者/国 SPXS/US

Most Searched